COSMOS 2459 (GLONASS)

Satellite information

Favourite Embed

Satellite Type and Status

PAYLOADIN ORBIT

Key statistics

Satellite COSMOS 2459 (GLONASS) at a glance.

Uptime

5668

Days in orbit

Revolutions

≈ 2.1

Per day

Orbit

MEO

Medium Earth Orbit

Inclination

65.6

Latest

Satellite identification and parameters

Extended collection of information and parameters for COSMOS 2459 (GLONASS).

Object identification

Identified? True

Debris? False

Object name: COSMOS 2459 (GLONASS)

International designator: 2010-007A

Object number (NORAD): 36400

Object ID (CCSDS): 36400

Country: COMMONWEALTH OF INDEPENDENT STATES (CIS)

Current information (Y/N): Y

RCS size: LARGE

Orbital parameters

Period: 675.685 minutes

Inclination: 65.6035 deg

SMA: 25506.835 km

Apoapsis: 19191.894 km

Periapsis: 19065.505 km

RAAN: 324.3378 deg

Eccentricy: 0.00247753

Argument of periapsis: 344.1712 deg

Mean anomaly: 14.6197 deg

Mean motion: 2.13116912 rev/day

Mean motion (dot): -0.00000059 rev/day2

B* drag term: 0.0 1/REarth

Two-line elements (TLE)

Creation date: Sept. 1, 2025, 7:24 p.m.

Reference frame: TEME

Reference center: EARTH

Epoch: Sept. 1, 2025, 10:06 a.m. UTC

TLE line 0: 0 COSMOS 2459 (GLONASS)

TLE line 1: 1 36400U 10007A 25244.42120752 -.00000059 00000-0 00000-0 0 9996

TLE line 2: 2 36400 65.6035 324.3378 0024775 344.1712 14.6197 2.13116912120666

Live tracking on map

Real-time ground track for satellite COSMOS 2459 (GLONASS).

In-orbit conjunctions

There are no conjunctions computed for COSMOS 2459 (GLONASS), at the moment. Check back to stay up to date, as we update our databases every day.

Go to all conjunctions

Associated space launch

Glonass-M, also known as Uragan-M, are the second generation of Uragan satellite design used for GLONASS satellite navigation system. GLONASS is a Russian space-based navigation system comparable to the similar GPS and Galileo systems. This generation improves on accuracy, power consumption and design life. Each satellite weighs 1415 kg, is equipped with 12 L-band antennas, and has an operational lifetime of 7 years.

COSMOS 2459 (GLONASS) was lifted into orbit during the mission ‘Proton-M/DM-2 Enhanced | 3 x Glonass-M (Kosmos 2459, Kosmos 2460, Kosmos 2461)’, on board a Proton-M space rocket.

The launch took place on March 1, 2010, 9:19 p.m. from 81/24 (81P).

For more information about the launch, click the button.

Launch to space Proton-M/DM-2 Enhanced | 3 x Glonass-M (Kosmos 2459, Kosmos 2460, Kosmos 2461)
Proton-M/DM-2 Enhanced | 3 x Glonass-M (Kosmos 2459, Kosmos 2460, Kosmos 2461)

Agency: N/A

Status: Launch Successful

Launch date: March 1, 2010, 9:19 p.m. UTC

Rocket: Proton-M

Launch pad: 81/24 (81P)

Location: Baikonur Cosmodrome, Republic of Kazakhstan

...

Latest news about this satellite

There are no fresh news available about this satellite. Check back as we update our databases every day.


Newsletter sign-up

Weekly statistics, charts and insights to help you stay on top of the space industry.